COSMOS 1275 DEB, 39967

Orbit data source: Space-Track

COSMOS 1275 DEB, 39967 is space debris in LEO originally from a launch on Thu, 04 Jun 1981 UTC launched from the Plesetsk Missile And Space Complex (PKMTR). Debris objects in space refer to the collection of defunct objects orbiting the Earth. Examples of debris include non-operational satellites, rocket bodies, and fragments generated from explosions, collisions, or faulty payload assembly.

Loading next visibility...
Identifier
39967, 1981-053PD
Orbit
LEO
Country
Flag of CISCIS
Related business
Manufacturer
Unknown
Mission
Spacecraft
Bus & Motor
Unknown
Mass
Unknown
Launch date (UTC)
1981-06-04 (45 years ago)
Launch vehicle
Unknown
Launch site
Plesetsk Missile And Space Complex (PKMTR)
Object type
Payload
Rocket body
Debris
Shape & HBR
Unknown shape, 0.1 m
Radar Cross Section
Small (<0.1 m²)

Expand to show TLE details & history
Last TLE update: 14 hours ago

TLE from 14 hours ago
0 COSMOS 1275 DEB
1 39967U 81053PD  26254.91649375  .00000632  00000-0  43317-3 0  9996
2 39967  82.9246 319.5769 0029318 277.8187  81.9654 13.97972696623564
Epoch: 2026-09-11T21:59Z
TLE epoch observation values (Epoch: 2026-09-11T21:59:45.060Z)
Latitude
0.00002°
Longitude
-1.29383°
Altitude
900.833 km
Speed
7.403 km/s
True Right ascension
21h 18m 18s
True Declination
0° 00' 00"
Sunlit
Object was in full shadow at epoch
Visualization orbit readout
Latitude
Unknown
Longitude
Unknown
Altitude
Unknown
Speed
Unknown
Apparent Right ascension
Unknown
Apparent Declination
Unknown
Sunlit
N/A
Visualization observer readout
Local Sidereal Time
04:44:38
Azimuth
Unknown
Elevation
Unknown
Doppler factor
Unknown
Orbital elements
Apogee altitude
919.274 km
Perigee altitude
876.61 km
Semi-major axis
7,276.079 km
Eccentricity
0.00293
Inclination
82.9246°
RAAN
319.5769°
Arg. of periapsis
277.8187°
True anomaly
82.29823°
Mean anomaly
81.9654°
Eccentric anomaly
82.1318°
Mean motion
3.49701 °/min
Orbital period
102.95 mins
BSTAR
0.00043317
Loading maneuver chart data...
Computing Atmospheric mass density...
Loading historical data...
Loading historical data...
Loading historical data...
Loading historical data...
Loading historical data...
Loading historical data...
Loading historical data...

Documentation

Showing up to 5 results
|